Location: Asheville, NC
(35.6000°N, 82.5500°W)
Time: 14:58:12
(UTC-05:00)

KKS-1 - Pass Details

Date: 07 January 2018
Orbit: 637 x 651 km, 98.3° (Epoch: 17 January)

Event Time Altitude Azimuth Distance (km) Brightness Sun altitude
Rises 05:34:05 0° 181° (S) 2,931 ? -25.1°
Reaches altitude 10° 05:36:22 10° 188° (S) 2,024 ? -24.6°
Enters shadow 05:37:40 19° 195° (SSW) 1,539 ? -24.3°
